Location: Melque
(41.0517°N, 4.4694°W)
Time: 03:29:49
(UTC+00:00)

Cosmos 1607 - Pass Details

Date: 11 December 2025
Orbit: 926 x 976 km, 65.0° (Epoch: 13 January)

Event Time Altitude Azimuth Distance (km) Brightness Sun altitude
Rises 17:17:07 0° 329° (NNW) 3,611 7.1 -5.4°
Reaches altitude 10° 17:19:40 10° 332° (NNW) 2,671 6.3 -5.9°
Maximum altitude 17:25:54 67° 55° (NE) 1,030 4.0 -6.9°
Drops below altitude 10° 17:32:10 10° 138° (SE) 2,692 6.1 -8.0°
Sets 17:34:45 0° 141° (SE) 3,641 6.8 -8.4°
